TimeAKDT,TemperatureF,Dew PointF,Humidity,Sea Level PressureIn,VisibilityMPH,Wind Direction,Wind SpeedMPH,Gust SpeedMPH,PrecipitationIn,Events,Conditions,WindDirDegrees,DateUTC
12:53 AM,57.9,52.0,81,29.98,10.0,NE,3.5,-,N/A,,Clear,40,2013-08-13 08:53:00
1:53 AM,57.0,52.0,83,29.99,10.0,Calm,Calm,-,N/A,,Clear,0,2013-08-13 09:53:00
2:53 AM,55.0,50.0,83,30.00,10.0,NE,3.5,-,N/A,,Clear,40,2013-08-13 10:53:00
3:53 AM,54.0,50.0,86,29.99,10.0,Calm,Calm,-,N/A,,Clear,0,2013-08-13 11:53:00
4:53 AM,53.1,48.9,86,30.01,10.0,NNE,3.5,-,N/A,,Clear,30,2013-08-13 12:53:00
5:53 AM,52.0,48.9,89,30.01,10.0,NNE,3.5,-,N/A,,Clear,30,2013-08-13 13:53:00
6:53 AM,53.1,48.9,86,30.01,10.0,NE,3.5,-,N/A,,Clear,50,2013-08-13 14:53:00
7:53 AM,53.1,51.1,93,30.02,10.0,Calm,Calm,-,N/A,,Clear,0,2013-08-13 15:53:00
8:53 AM,54.0,50.0,86,30.02,10.0,SW,3.5,-,N/A,,Clear,220,2013-08-13 16:53:00
9:53 AM,55.9,51.1,84,30.01,10.0,SW,3.5,-,N/A,,Clear,230,2013-08-13 17:53:00
10:53 AM,60.1,52.0,75,30.00,10.0,SW,3.5,-,N/A,,Clear,220,2013-08-13 18:53:00
11:53 AM,62.1,53.1,72,29.99,10.0,SW,3.5,-,N/A,,Clear,220,2013-08-13 19:53:00
12:53 PM,66.0,53.1,63,29.97,10.0,SW,10.4,-,N/A,,Clear,220,2013-08-13 20:53:00
1:53 PM,66.9,54.0,63,29.95,10.0,SSW,21.9,-,N/A,,Clear,210,2013-08-13 21:53:00
2:53 PM,64.9,54.0,68,29.94,10.0,SW,21.9,-,N/A,,Clear,220,2013-08-13 22:53:00
3:53 PM,63.0,53.1,70,29.93,10.0,SW,21.9,-,N/A,,Clear,220,2013-08-13 23:53:00
4:53 PM,68.0,53.1,59,29.93,10.0,SSW,21.9,32.2,N/A,,Clear,210,2013-08-14 00:53:00
5:53 PM,69.1,54.0,58,29.92,10.0,SSW,20.7,27.6,N/A,,Clear,200,2013-08-14 01:53:00
6:53 PM,68.0,54.0,61,29.94,10.0,SSW,17.3,25.3,N/A,,Clear,210,2013-08-14 02:53:00
7:53 PM,63.0,54.0,72,29.94,10.0,WSW,13.8,-,N/A,,Clear,240,2013-08-14 03:53:00
8:53 PM,66.0,54.0,65,29.95,10.0,SSW,9.2,19.6,N/A,,Clear,200,2013-08-14 04:53:00
9:53 PM,63.0,53.1,70,29.97,10.0,WNW,5.8,-,N/A,,Clear,290,2013-08-14 05:53:00
10:53 PM,61.0,53.1,75,29.98,10.0,Calm,Calm,-,N/A,,Clear,0,2013-08-14 06:53:00
11:53 PM,61.0,53.1,75,29.99,10.0,Variable,3.5,-,N/A,,Mostly Cloudy,0,2013-08-14 07:53:00